Home   Weather   Friesoythe   Past weeks

Flag for Germany Past Weather in Friesoythe, Lower Saxony, Germany — Yesterday and Last 2 Weeks

Now
45 °F

Quite cool.


Feels Like: 41 °F
Forecast: 42 / 50 °F
Wind: 6 mph from Southwest

Location: Meppen-Mil

Current Time: Dec 8, 2016 at 9:14:35 pm

Latest Report: Dec 8, 2016 at 8:20 pm


Visibility: 3 mi

Pressure: 30.27 "Hg

Humidity: 81%

Dew Point: 39 °F

Location of FriesoytheLocation

Past Weather in Friesoythe — Graph

°F

Friesoythe Temperature Yesterday

Maximum temperature yesterday: 46 °F (at 8:20 pm)
Minimum temperature yesterday: 30 °F (at 12:20 am)
Average temperature yesterday: 39 °F

High & Low Weather Summary for the Past Weeks

 TemperatureHumidityPressure
High48 °F (Nov 27, 12:20 pm)100% (Nov 25, 7:20 pm)30.60 "Hg (Nov 25, 7:20 pm)
Low16 °F (Dec 6, 4:20 am)58% (Dec 8, 2:20 pm)30.07 "Hg (Nov 26, 6:20 pm)
Average35 °F86%30.31 "Hg
* Reported Nov 23 7:20 pm — Dec 8 7:20 pm, Friesoythe, Weather by CustomWeather, © 2016

Note: Actual official high and low records may vary slightly from our data, if they occured in-between our weather recording intervals... More about our weather records

Advertising

Friesoythe Weather History for the Previous 24 Hours

Scroll right to see more
 ConditionsComfort  
Time TempWeatherWind HumidityBarometerVisibility
7:20 pm
Thu, Dec 8
45 °FQuite cool.6 mph76%30.24 "HgN/A
6:20 pm45 °FQuite cool.5 mph66%30.24 "HgN/A
5:20 pm46 °FCool.6 mph62%30.24 "HgN/A
4:20 pm46 °FCool.6 mph62%30.24 "HgN/A
3:20 pm48 °FCool.6 mph58%30.27 "HgN/A
2:20 pm48 °FCool.6 mph58%30.27 "HgN/A
1:20 pm48 °FCool.6 mph62%30.27 "HgN/A
12:20 pm48 °FPartly sunny.6 mph62%30.30 "HgN/A
11:20 am46 °FPartly sunny.5 mph66%30.30 "HgN/A
10:20 am46 °FBroken clouds.6 mph66%30.30 "HgN/A
9:20 am45 °FPartly cloudy.7 mph66%30.30 "HgN/A
8:20 am45 °FPassing clouds.5 mph66%30.30 "HgN/A
7:20 am45 °FPassing clouds.7 mph66%30.30 "HgN/A
6:20 am45 °FPassing clouds.7 mph66%30.30 "HgN/A
5:20 am45 °FQuite cool.6 mph66%30.30 "HgN/A
4:20 am45 °FQuite cool.6 mph71%30.33 "HgN/A
3:20 am45 °FQuite cool.6 mph71%30.33 "HgN/A
2:20 am45 °FQuite cool.6 mph71%30.33 "HgN/A
1:20 am45 °FQuite cool.6 mph71%30.33 "HgN/A
12:20 am46 °FCool.7 mph71%30.33 "HgN/A
11:20 pm
Wed, Dec 7
46 °FCool.6 mph71%30.33 "HgN/A
10:20 pm46 °FCool.6 mph71%30.33 "HgN/A
9:20 pm45 °FQuite cool.7 mph76%30.33 "HgN/A
Weather by CustomWeather, © 2016

See weather overviewHow to use our weather pages